• Join FlightAware (Why Join?)
  • Login
  • US Flag GB Flag 
22:40 EDT


 

Airport Tracker/Info


-or-


 

Live Flight TrackerFlight Track Log ✈ BOE5 ✈ 13-Jun-2013 ✈ KBFI - KDAB

Flight Track Log - Related Links

Times and Time Zones

All times are in EDT time to prevent confusion due to time zone crossing. See the BOE5 flight status page for this flight to view local times or setup timezone preferences in your user account.

Time Position Orientation Groundspeed Altitude Reporting Facility
EDT Latitude Longitude Course Direction KTS MPH feet Rate Location/Type
11:55 47.5056 -122.2814 146° Southeast 174 200 1,300  Level Seattle Center
11:55 47.4767 -122.2525 146° Southeast 193 222 2,700 2,460 Climbing Seattle Center
11:56 47.4356 -122.1758 128° Southeast 254 292 5,400 3,000 Climbing Seattle Center
11:57 47.4367 -122.0706 89° East 256 295 8,900 2,820 Climbing Seattle Center
11:58 47.4347 -121.9592 91° East 275 316 11,200 2,280 Climbing Seattle Center
11:59 47.4317 -121.8144 92° East 355 409 13,600 2,820 Climbing Seattle Center
12:00 47.4114 -121.6536 100° East 374 430 17,000 2,820 Climbing Seattle Center
12:01 47.3733 -121.5172 112° Southeast 386 444 19,400 2,460 Climbing Seattle Center
12:02 47.3322 -121.3675 112° Southeast 396 456 22,100 2,400 Climbing Seattle Center
12:03 47.2903 -121.2139 112° Southeast 408 470 24,400 2,100 Climbing Seattle Center
12:04 47.2472 -121.0539 112° Southeast 422 486 26,400 2,040 Climbing Seattle Center
12:05 47.1928 -120.8561 112° Southeast 438 504 28,600 1,620 Climbing Seattle Center
12:06 47.1514 -120.7106 113° Southeast 451 519 29,800 1,080 Climbing Seattle Center
12:07 47.1019 -120.5322 112° Southeast 471 542 30,900 1,140 Climbing Seattle Center
12:08 47.0514 -120.3500 112° Southeast 482 555 32,200 1,320 Climbing Seattle Center
12:09 46.9875 -120.1383 114° Southeast 499 574 33,600 1,320 Climbing Seattle Center
12:11 46.9300 -119.9372 113° Southeast 503 579 34,900 1,320 Climbing Seattle Center
12:12 46.8753 -119.7478 113° Southeast 506 582 36,300 960 Climbing Seattle Center
12:13 46.8211 -119.5622 113° Southeast 502 578 36,900 720 Climbing Seattle Center
12:14 46.7653 -119.3756 114° Southeast 504 580 37,800 720 Climbing Seattle Center
12:15 46.7122 -119.1983 114° Southeast 503 579 38,400 540 Climbing Seattle Center
12:16 46.6564 -119.0117 113° Southeast 503 579 39,000 240 Climbing Seattle Center
12:17 46.5992 -118.8181 113° Southeast 502 578 38,900  Descending Seattle Center
12:18 46.5422 -118.6319 114° Southeast 506 582 39,000  Climbing Seattle Center
12:19 46.4850 -118.4489 114° Southeast 502 578 39,000  Level Seattle Center
12:20 46.4175 -118.2283 114° Southeast 502 578 39,000 -60 Level Seattle Center
12:21 46.3597 -118.0453 115° Southeast 504 580 38,900 -60 Descending Seattle Center
12:22 46.3017 -117.8614 115° Southeast 505 581 38,900  Level Seattle Center
12:23 46.2447 -117.6789 114° Southeast 503 579 39,000  Climbing Seattle Center
12:24 46.1853 -117.4961 115° Southeast 505 581 39,000  Level Seattle Center
12:25 46.1278 -117.3136 114° Southeast 504 580 39,000  Level Seattle Center
12:26 46.0694 -117.1353 115° Southeast 499 574 39,000 -60 Level Seattle Center
12:27 46.0106 -116.9569 115° Southeast 497 572 38,900 -60 Descending Seattle Center
12:28 45.9517 -116.7733 115° Southeast 504 580 38,900  Level Seattle Center
12:29 45.8931 -116.5978 116° Southeast 495 570 39,000  Climbing Seattle Center
12:30 45.8222 -116.3850 115° Southeast 496 571 38,900 -60 Descending Seattle Center
12:31 45.7617 -116.2083 116° Southeast 497 572 38,900  Level Seattle Center
12:32 45.7025 -116.0300 115° Southeast 500 575 39,000  Climbing Seattle Center
12:33 45.6425 -115.8519 116° Southeast 500 575 38,900  Descending Seattle Center
12:34 45.5783 -115.6653 116° Southeast 495 570 39,000  Climbing Seattle Center
12:35 45.5192 -115.4942 116° Southeast 499 574 39,000  Level Seattle Center
12:36 45.4611 -115.3197 115° Southeast 506 582 39,000  Level Seattle Center
12:37 45.3919 -115.1236 117° Southeast 498 573 39,100 120 Climbing Seattle Center
12:37 45.3731 -115.0683 116° Southeast 495 570 39,200 420 Climbing Salt Lake Center
12:38 45.3133 -114.8983 116° Southeast 498 573 39,700 480 Climbing Salt Lake Center
12:39 45.2428 -114.7008 117° Southeast 501 577 40,300 360 Climbing Salt Lake Center
12:40 45.1822 -114.5311 117° Southeast 502 578 40,500 300 Climbing Salt Lake Center
12:41 45.1108 -114.3339 117° Southeast 502 578 41,000 240 Climbing Salt Lake Center
12:42 45.0503 -114.1664 117° Southeast 499 574 41,000  Level Salt Lake Center
12:44 44.9722 -113.9797 121° Southeast 494 568 41,000  Level Salt Lake Center
12:45 44.8975 -113.8225 124° Southeast 492 566 41,000  Level Salt Lake Center
12:46 44.8258 -113.6303 118° Southeast 497 572 41,000  Level Salt Lake Center
12:47 44.7658 -113.4653 117° Southeast 496 571 41,000  Level Salt Lake Center
12:48 44.7017 -113.2997 119° Southeast 502 578 41,000  Level Salt Lake Center
12:49 44.6325 -113.1081 117° Southeast 496 571 41,000  Level Salt Lake Center
12:50 44.5697 -112.9444 118° Southeast 499 574 41,000  Level Salt Lake Center
12:51 44.4989 -112.7550 118° Southeast 494 568 41,000  Level Salt Lake Center
12:52 44.4375 -112.5944 118° Southeast 492 566 41,000  Level Salt Lake Center
12:53 44.3656 -112.4058 118° Southeast 493 567 41,000  Level Salt Lake Center
12:54 44.3031 -112.2456 119° Southeast 492 566 41,000  Level Salt Lake Center
12:55 44.2303 -112.0575 118° Southeast 497 572 41,000  Level Salt Lake Center
12:56 44.1692 -111.8989 118° Southeast 492 566 41,000  Level Salt Lake Center
12:57 44.0956 -111.7142 119° Southeast 492 566 41,000  Level Salt Lake Center
12:58 44.0328 -111.5556 119° Southeast 492 566 41,000  Level Salt Lake Center
12:59 43.9614 -111.3711 118° Southeast 490 564 41,000  Level Salt Lake Center
13:00 43.8969 -111.2147 120° Southeast 491 565 41,000  Level Salt Lake Center
13:01 43.8225 -111.0328 120° Southeast 488 562 41,000  Level Salt Lake Center
13:02 43.7619 -110.8739 118° Southeast 490 564 41,000  Level Salt Lake Center
13:03 43.6861 -110.6931 120° Southeast 489 563 41,000  Level Salt Lake Center
13:04 43.6225 -110.5331 119° Southeast 496 571 41,000  Level Salt Lake Center
13:05 43.5467 -110.3511 120° Southeast 491 565 41,000  Level Salt Lake Center
13:06 43.4747 -110.1797 120° Southeast 497 572 41,000  Level Salt Lake Center
13:07 43.4083 -110.0214 120° Southeast 497 572 41,000  Level Salt Lake Center
13:08 43.3311 -109.8342 120° Southeast 503 579 41,000  Level Salt Lake Center
13:09 43.2633 -109.6775 121° Southeast 500 575 41,000  Level Salt Lake Center
13:10 43.1972 -109.5206 120° Southeast 498 573 41,000  Level Salt Lake Center
13:11 43.1206 -109.3394 120° Southeast 494 568 41,000  Level Salt Lake Center
13:12 43.0533 -109.1839 121° Southeast 495 570 41,000  Level Salt Lake Center
13:14 42.9799 -109.0132 120° Southeast  Level FlightAware Approximate
13:14 42.9097 -108.8550 120° Southeast 486 559 41,000  Level Salt Lake Center
13:16 42.8317 -108.6767 121° Southeast 490 564 41,000  Level Salt Lake Center
13:17 42.7642 -108.5222 121° Southeast 494 568 41,000  Level Salt Lake Center
13:18 42.6858 -108.3433 121° Southeast 492 566 41,000  Level Salt Lake Center
13:19 42.6169 -108.1886 121° Southeast 498 573 41,000  Level Salt Lake Center
13:20 42.5489 -108.0333 121° Southeast 499 574 41,000  Level Salt Lake Center
13:21 42.4686 -107.8525 121° Southeast 500 575 41,000  Level Salt Lake Center
13:22 42.3972 -107.6986 122° Southeast 503 579 41,000  Level Salt Lake Center
13:23 42.3372 -107.5664 122° Southeast 504 580 41,000  Level Denver Center
13:24 42.2547 -107.3867 122° Southeast 504 580 41,000  Level Denver Center
13:25 42.1856 -107.2342 121° Southeast 500 575 41,000  Level Denver Center
13:26 42.1025 -107.0567 122° Southeast 499 574 41,000  Level Denver Center
13:27 42.0314 -106.9039 122° Southeast 502 578 41,000  Level Denver Center
13:28 41.9503 -106.7283 122° Southeast 497 572 41,000  Level Denver Center
13:29 41.8797 -106.5797 122° Southeast 493 567 41,000  Level Denver Center
13:30 41.8033 -106.4186 122° Southeast 499 574 41,000  Level Denver Center
13:31 41.7208 -106.2431 122° Southeast 500 575 41,000  Level Denver Center
13:32 41.6489 -106.0931 123° Southeast 503 579 41,000  Level Denver Center
13:33 41.5656 -105.9183 122° Southeast 501 577 41,000  Level Denver Center
13:34 41.4933 -105.7700 123° Southeast 499 574 41,000  Level Denver Center
13:35 41.4083 -105.5944 123° Southeast 504 580 41,000  Level Denver Center
13:36 41.3358 -105.4458 123° Southeast 501 577 41,000  Level Denver Center
13:37 41.2511 -105.2711 123° Southeast 504 580 41,000  Level Denver Center
13:38 41.1778 -105.1242 124° Southeast 501 577 41,000  Level Denver Center
13:39 41.0928 -104.9508 123° Southeast 504 580 41,000  Level Denver Center
13:40 41.0181 -104.7994 123° Southeast 511 588 41,000  Level Denver Center
13:41 40.9425 -104.6517 124° Southeast 502 578 41,000  Level Denver Center
13:42 40.8639 -104.4939 123° Southeast 510 587 41,000  Level Denver Center
13:43 40.7697 -104.3067 124° Southeast 511 588 41,000  Level Denver Center
13:44 40.6911 -104.1519 124° Southeast 509 586 41,000  Level Denver Center
13:45 40.6122 -103.9986 124° Southeast 505 581 41,000  Level Denver Center
13:46 40.5339 -103.8450 124° Southeast 506 582 41,000  Level Denver Center
13:47 40.4547 -103.6906 124° Southeast 508 585 41,000  Level Denver Center
13:48 40.3739 -103.5367 125° Southeast 511 588 41,000  Level Denver Center
13:49 40.2939 -103.3833 124° Southeast 509 586 41,000  Level Denver Center
13:50 40.1978 -103.1992 124° Southeast 508 585 41,000  Level Denver Center
13:51 40.1344 -103.0781 124° Southeast 506 582 41,000  Level Denver Center
13:53 40.0364 -102.8942 125° Southeast 513 590 41,000  Level Denver Center
13:54 39.9556 -102.7417 125° Southeast 513 590 41,000  Level Denver Center
13:55 39.8639 -102.5714 125° Southeast 510 587 41,000  Level Denver Center
13:56 39.7872 -102.4267 125° Southeast 508 585 41,000  Level Denver Center
13:57 39.6978 -102.2600 125° Southeast 505 581 41,000  Level Denver Center
13:58 39.6217 -102.1214 125° Southeast 495 570 41,000  Level Denver Center
13:59 39.5372 -101.9578 124° Southeast 492 566 41,000  Level Denver Center
14:00 39.4656 -101.8183 124° Southeast 489 563 41,000  Level Denver Center
14:01 39.3794 -101.6539 124° Southeast 493 567 41,000  Level Denver Center
14:02 39.3053 -101.5125 124° Southeast 496 571 41,000  Level Denver Center
14:03 39.2328 -101.3681 123° Southeast 500 575 41,000  Level Denver Center
14:04 39.1453 -101.2014 124° Southeast 504 580 41,000  Level Denver Center
14:05 39.0461 -101.0147 124° Southeast 498 573 41,000  Level Denver Center
14:06 38.9800 -100.8508 117° Southeast 499 574 41,000  Level Denver Center
14:07 38.9250 -100.6975 115° Southeast 495 570 41,000  Level Denver Center
14:08 38.8600 -100.5153 115° Southeast 499 574 41,000  Level Denver Center
14:09 38.8036 -100.3619 115° Southeast 498 573 41,000  Level Denver Center
14:10 38.7389 -100.1831 115° Southeast 496 571 41,000  Level Denver Center
14:11 38.7103 -100.1042 115° Southeast 496 571 41,000  Level Kansas City Center
14:12 38.6550 -99.9508 115° Southeast 496 571 41,000  Level Kansas City Center
14:13 38.5881 -99.7725 116° Southeast 496 571 41,000  Level Kansas City Center
14:14 38.5303 -99.6197 116° Southeast 497 572 41,000  Level Kansas City Center
14:15 38.4678 -99.4489 115° Southeast 499 574 41,000  Level Kansas City Center
14:16 38.4078 -99.2900 116° Southeast 499 574 41,000  Level Kansas City Center
14:17 38.3486 -99.1336 116° Southeast 493 567 41,000  Level Kansas City Center
14:18 38.2889 -98.9753 116° Southeast 496 571 41,000  Level Kansas City Center
14:19 38.2294 -98.8197 116° Southeast 491 565 41,000  Level Kansas City Center
14:20 38.1711 -98.6622 115° Southeast 492 566 41,000  Level Kansas City Center
14:21 38.0981 -98.4739 116° Southeast 496 571 41,000  Level Kansas City Center
14:22 38.0375 -98.3161 116° Southeast 498 573 41,000  Level Kansas City Center
14:23 37.9761 -98.1625 117° Southeast 490 564 41,000  Level Kansas City Center
14:24 37.9153 -98.0133 117° Southeast 491 565 41,000  Level Kansas City Center
14:25 37.8422 -97.8275 116° Southeast 491 565 41,000  Level Kansas City Center
14:26 37.7747 -97.6614 117° Southeast 504 580 41,000  Level Kansas City Center
14:27 37.7133 -97.5069 117° Southeast 496 571 41,000  Level Kansas City Center
14:28 37.6547 -97.3639 117° Southeast 495 570 41,000  Level Kansas City Center
14:29 37.5903 -97.2092 118° Southeast 497 572 41,000  Level Kansas City Center
14:30 37.5131 -97.0231 118° Southeast 501 577 41,000  Level Kansas City Center
14:32 37.4486 -96.8689 118° Southeast 499 574 41,000  Level Kansas City Center
14:33 37.3833 -96.7156 118° Southeast 497 572 41,000  Level Kansas City Center
14:34 37.3183 -96.5608 118° Southeast 502 578 41,000  Level Kansas City Center
14:35 37.2528 -96.4081 118° Southeast 498 573 41,000  Level Kansas City Center
14:36 37.1886 -96.2531 117° Southeast 500 575 41,000  Level Kansas City Center
14:37 37.1100 -96.0675 118° Southeast 502 578 41,000  Level Kansas City Center
14:38 37.0428 -95.9144 119° Southeast 502 578 41,000  Level Kansas City Center
14:39 36.9772 -95.7597 118° Southeast 503 579 41,000  Level Kansas City Center
14:40 36.9094 -95.6056 119° Southeast 505 581 41,000  Level Kansas City Center
14:41 36.8436 -95.4567 119° Southeast 506 582 41,000  Level Kansas City Center
14:42 36.7642 -95.2761 119° Southeast 498 573 41,000  Level Kansas City Center
14:43 36.6975 -95.1250 119° Southeast 497 572 41,000  Level Kansas City Center
14:44 36.6367 -94.9875 119° Southeast 495 570 41,000  Level Kansas City Center
14:45 36.5703 -94.8367 119° Southeast 496 571 41,000  Level Kansas City Center
14:46 36.4881 -94.6597 120° Southeast 495 570 41,000  Level Kansas City Center
14:47 36.4203 -94.5117 120° Southeast 494 568 41,000  Level Kansas City Center
14:48 36.3558 -94.3619 118° Southeast 494 568 41,000  Level Kansas City Center
14:49 36.2864 -94.2153 120° Southeast 493 567 41,000  Level Kansas City Center
14:50 36.2272 -94.0642 116° Southeast 492 566 41,000  Level Kansas City Center
14:51 36.1839 -93.9025 108° East 494 568 41,000  Level Kansas City Center
14:52 36.1311 -93.7083 109° East 495 570 41,000  Level Kansas City Center
14:53 36.0825 -93.5417 110° East 493 567 41,000  Level Memphis Center
14:54 36.0386 -93.3808 109° East 493 567 41,000  Level Memphis Center
14:55 35.9925 -93.2175 109° East 493 567 41,000  Level Memphis Center
14:56 35.9481 -93.0622 109° East 493 567 41,000  Level Memphis Center
14:57 35.9033 -92.8992 109° East 493 567 41,000  Level Memphis Center
14:58 35.8564 -92.7414 110° East 493 567 41,000  Level Memphis Center
15:00 35.7940 -92.5465 110° East  Level FlightAware Approximate
15:00 35.7622 -92.4217 110° East 493 567 41,000  Level Memphis Center
15:01 35.7147 -92.2592 110° East 493 567 41,000  Level Memphis Center
15:02 35.6692 -92.0972 109° East 493 567 41,000  Level Memphis Center
15:03 35.6192 -91.9353 111° Southeast 493 567 41,000  Level Memphis Center
15:04 35.5708 -91.7736 110° East 493 567 41,000  Level Memphis Center
15:05 35.5225 -91.6172 111° Southeast 493 567 41,000  Level Memphis Center
15:06 35.4719 -91.4558 111° Southeast 493 567 41,000  Level Memphis Center
15:07 35.4272 -91.2997 109° East 493 567 41,000  Level Memphis Center
15:08 35.3764 -91.1336 111° Southeast 498 573 41,000  Level Memphis Center
15:09 35.3272 -90.9756 111° Southeast 503 579 41,000  Level Memphis Center
15:10 35.2819 -90.8353 112° Southeast 497 572 41,000  Level Memphis Center
15:11 35.2344 -90.6747 110° East 497 572 41,000  Level Memphis Center
15:12 35.1844 -90.5119 111° Southeast 492 566 41,000  Level Memphis Center
15:13 35.1347 -90.3544 111° Southeast 492 566 41,000  Level Memphis Center
15:14 35.0844 -90.1972 111° Southeast 492 566 41,000  Level Memphis Center
15:15 35.0342 -90.0350 111° Southeast 492 566 41,000  Level Memphis Center
15:16 34.9708 -89.8656 114° Southeast 492 566 41,000  Level Memphis Center
15:17 34.9036 -89.7267 121° Southeast 509 586 41,000  Level Memphis Center
15:18 34.8336 -89.5450 115° Southeast 519 597 41,000  Level Memphis Center
15:20 34.7558 -89.3632 117° Southeast  Level FlightAware Approximate
15:20 34.7125 -89.2631 117° Southeast 504 580 41,000  Level Memphis Center
15:21 34.6483 -89.1150 118° Southeast 498 573 41,000  Level Memphis Center
15:22 34.5822 -88.9597 117° Southeast 503 579 41,000  Level Memphis Center
15:23 34.5200 -88.8219 119° Southeast 489 563 41,000  Level Memphis Center
15:24 34.4553 -88.6694 117° Southeast 484 557 41,000  Level Memphis Center
15:26 34.3764 -88.4901 118° Southeast  Level FlightAware Approximate
15:26 34.3236 -88.3678 118° Southeast 495 570 41,000  Level Memphis Center
15:27 34.2564 -88.2161 118° Southeast 501 577 41,000  Level Memphis Center
15:28 34.1825 -88.0447 117° Southeast 514 592 41,000  Level Memphis Center
15:30 34.0825 -87.8261 119° Southeast 505 581 41,000  Level Atlanta Center
15:31 34.0139 -87.6750 119° Southeast 505 581 41,000  Level Atlanta Center
15:32 33.9494 -87.5272 118° Southeast 505 581 41,000  Level Atlanta Center
15:33 33.8825 -87.3767 118° Southeast 510 587 41,000  Level Atlanta Center
15:34 33.8156 -87.2267 118° Southeast 505 581 41,000  Level Atlanta Center
15:35 33.7506 -87.0794 118° Southeast 505 581 41,000  Level Atlanta Center
15:36 33.6811 -86.9294 119° Southeast 506 582 41,000  Level Atlanta Center
15:37 33.5617 -86.8508 151° Southeast 481 554 41,000  Level Atlanta Center
15:38 33.4314 -86.7992 162° South 467 537 41,000  Level Atlanta Center
15:39 33.3031 -86.7506 162° South 479 551 41,000  Level Atlanta Center
15:40 33.1625 -86.6914 161° South 485 558 41,000  Level Atlanta Center
15:41 33.0364 -86.6356 160° South 485 558 41,000  Level Atlanta Center
15:42 32.9017 -86.5897 164° South 490 564 41,000  Level Atlanta Center
15:43 32.7711 -86.5414 163° South 496 571 41,000  Level Atlanta Center
15:44 32.6386 -86.4858 161° South 496 571 41,000  Level Atlanta Center
15:45 32.5061 -86.4353 162° South 496 571 41,000  Level Atlanta Center
15:46 32.3714 -86.3825 162° South 501 577 41,000  Level Atlanta Center
15:47 32.2636 -86.3403 162° South 508 585 41,000  Level Atlanta Center
15:48 32.1406 -86.2194 140° Southeast 488 562 41,000  Level Atlanta Center
15:49 32.0422 -86.1117 137° Southeast 513 590 41,000  Level Atlanta Center
15:53 31.6625 -85.6581 134° Southeast 478 550 41,000  Level Jacksonville Center
15:54 31.5647 -85.5431 135° Southeast 496 571 41,000  Level Jacksonville Center
15:55 31.4689 -85.4281 134° Southeast 484 557 41,000  Level Jacksonville Center
15:56 31.3708 -85.3183 136° Southeast 477 549 41,000  Level Jacksonville Center
15:57 31.2792 -85.1994 132° Southeast 477 549 41,000 -300 Level Jacksonville Center
15:58 31.2081 -85.0811 125° Southeast 483 556 40,400 -1,020 Descending Jacksonville Center
15:59 31.1353 -84.9433 122° Southeast 497 572 39,000 -720 Descending Jacksonville Center
16:00 31.0622 -84.8036 121° Southeast 503 579 39,000 -600 Level Jacksonville Center
16:01 31.0058 -84.6547 114° Southeast 503 579 37,800 -1,200 Descending Jacksonville Center
16:02 30.9808 -84.4967 100° East 496 571 36,700 -1,200 Descending Jacksonville Center
16:03 30.9556 -84.3414 101° East 490 564 35,500 -900 Descending Jacksonville Center
16:04 30.9303 -84.1833 101° East 490 564 35,000 -300 Descending Jacksonville Center
16:05 30.9044 -84.0258 101° East 490 564 35,000  Level Jacksonville Center
16:06 30.8767 -83.8706 102° East 490 564 35,000  Level Jacksonville Center
16:07 30.8506 -83.7128 101° East 490 564 35,000 -300 Level Jacksonville Center
16:08 30.8264 -83.5578 100° East 490 564 34,500 -1,200 Descending Jacksonville Center
16:09 30.8022 -83.3883 99° East 490 564 32,600 -1,800 Descending Jacksonville Center
16:10 30.7567 -83.2358 109° East 490 564 30,900 -900 Descending Jacksonville Center
16:11 30.6714 -83.1003 126° Southeast 490 564 30,800 -1,020 Descending Jacksonville Center
16:12 30.5900 -82.9697 126° Southeast 501 577 28,900 -1,920 Descending Jacksonville Center
16:13 30.5108 -82.8444 126° Southeast 501 577 27,000 -2,040 Descending Jacksonville Center
16:14 30.4333 -82.7239 127° Southeast 487 560 24,900 -1,560 Descending Jacksonville Center
16:15 30.3478 -82.6133 132° Southeast 476 548 23,900 -480 Descending Jacksonville Center
16:16 30.2222 -82.5944 173° South 430 495 24,000 -180 Climbing Jacksonville Center
16:17 30.0886 -82.5853 177° South 446 513 23,600 -1,200 Descending Jacksonville Center
16:18 29.9800 -82.5472 163° South 455 524 21,600 -1,920 Descending Jacksonville Center
16:19 29.8836 -82.4614 142° Southeast 434 499 19,800 -1,860 Descending Jacksonville Center
16:20 29.7936 -82.3733 140° Southeast 434 499 17,900 -2,100 Descending Jacksonville Center
16:20 29.7328 -82.3186 142° Southeast 413 475 16,600 -1,800 Descending Jacksonville Center
16:21 29.7078 -82.2875 133° Southeast 422 486 16,100 -1,560 Descending Jacksonville Center
16:21 29.6886 -82.2208 108° East 385 443 15,200 -1,740 Descending Jacksonville Center
16:22 29.6883 -82.1658 90° East 373 429 14,400 -1,980 Descending Jacksonville Center
16:22 29.6900 -82.0942 88° East 377 434 13,200 -1,920 Descending Jacksonville Center
16:23 29.6853 -82.0486 97° East 363 418 12,500 -1,800 Descending Jacksonville Center
16:23 29.6869 -81.9769 88° East 368 423 11,400 -1,800 Descending Jacksonville Center
16:24 29.6867 -81.9339 90° East 353 406 10,700 -1,500 Descending Jacksonville Center
16:24 29.6842 -81.8647 92° East 355 409 10,000 -840 Descending Jacksonville Center
16:25 29.6836 -81.8217 91° East 358 412 9,900  Descending Jacksonville Center
16:25 29.6831 -81.7522 91° East 311 358 10,000  Climbing Jacksonville Center
16:26 29.6828 -81.7236 91° East 331 381 9,900  Descending Jacksonville Center
16:26 29.6822 -81.6589 91° East 286 329 10,000 60 Climbing Jacksonville Center
16:27 29.6800 -81.6303 95° East 309 356 10,000  Level Jacksonville Center
16:27 29.6750 -81.5517 94° East 296 341 10,000  Level Jacksonville Center
16:28 29.6706 -81.5372 109° East 290 334 10,000 -120 Level Jacksonville Center
16:28 29.6200 -81.4831 137° Southeast 298 343 9,900 -300 Descending Jacksonville Center
16:29 29.6114 -81.4711 130° Southeast 273 314 9,700 -1,140 Descending Jacksonville Center
16:29 29.5628 -81.4147 135° Southeast 295 339 8,800 -1,140 Descending Jacksonville Center
16:30 29.5542 -81.4053 136° Southeast 278 320 8,600 -900 Descending Jacksonville Center
16:30 29.5056 -81.3511 136° Southeast 286 329 7,900 -900 Descending Jacksonville Center
16:31 29.4528 -81.2900 135° Southeast 272 313 7,000 -780 Descending Jacksonville Center
16:32 29.3933 -81.2217 135° Southeast 273 314 6,400 -900 Descending Jacksonville Center
16:34 29.3361 -81.1561 135° Southeast 273 314 5,200 -780 Descending Jacksonville Center
16:34 29.2917 -81.1019 133° Southeast 257 296 5,000 -300 Descending Jacksonville Center
16:35 29.2872 -81.0831 105° East 264 304 4,900 -540 Descending Jacksonville Center
16:35 29.2967 -81.0233 80° East 252 290 4,500 -600 Descending Jacksonville Center
16:36 29.2944 -81.0044 98° East 239 275 4,300 -540 Descending Jacksonville Center
16:36 29.3039 -80.9494 79° East 236 272 4,000 -540 Descending Jacksonville Center
16:37 29.3036 -80.9303 91° East 233 268 3,800 -1,500 Descending Jacksonville Center
16:37 29.2864 -80.8903 116° Southeast 203 234 2,500 -1,140 Descending Jacksonville Center
16:39 29.2367 -80.9175 206° Southwest 158 182 1,600 -480 Descending Jacksonville Center
16:40 29.2186 -80.9606 244° Southwest 151 174 1,600 -360 Level Jacksonville Center
16:41 29.2025 -81.0014 246° West 147 169 1,000 -720 Descending Jacksonville Center
16:42 29.1864 -81.0397 244° Southwest 137 158 300 -780 Descending Jacksonville Center
16:43 29.1667 -81.0500 231° Southwest  Level FlightAware Approximate
16:50 29.1799 -81.0581 231° Southwest  Level Estimated
16:51 29.1799 -81.0581 231° Southwest  Level Estimated
16:52 29.1799 -81.0581 231° Southwest  Level Estimated